Theta_e
326 324 325 326 330 336 339 342 351 350 349 357 351 348 360 359 355 354 352 348 347 346 344 343 343 343 343 348 348 348 352 348 351 350 348 351 349 351 353 352 352 350 351 352
327 325 325 325 327 329 336 337 350 349 348 357 352 356 359 359 358 355 352 350 351 350 347 344 343 341 342 348 348 349 354 349 352 348 349 349 351 352 353 351 354 352 352 352
327 326 325 325 326 328 330 335 350 352 350 352 358 362 346 359 356 357 355 353 351 351 350 344 343 341 342 348 349 350 354 350 351 350 350 354 349 344 354 351 354 354 353 353
324 326 326 326 326 328 330 334 338 350 349 345 346 360 366 363 358 351 358 357 355 352 350 345 343 342 342 346 348 351 353 351 351 354 350 352 350 347 352 350 354 353 353 353
324 325 326 326 326 329 332 334 342 344 345 339 340 352 353 354 363 346 353 358 354 350 346 346 345 344 343 345 346 351 352 355 352 354 354 350 351 352 350 353 351 353 354 355
325 326 326 326 327 333 333 333 333 340 341 340 341 341 353 358 356 353 350 358 354 352 348 347 347 347 347 345 344 350 353 354 356 351 354 353 352 348 349 351 349 353 354 354
328 327 325 327 328 331 332 335 335 343 340 338 338 342 356 353 350 353 357 356 351 347 350 350 350 349 349 345 343 350 353 355 356 353 354 357 355 354 351 351 352 355 354 354
329 331 329 326 328 332 332 335 335 341 338 336 335 350 349 346 345 343 350 351 356 346 348 351 352 351 349 348 344 349 355 357 355 357 357 355 355 354 352 351 351 351 350 352
331 329 329 327 329 332 334 336 334 332 332 333 345 348 345 345 346 348 358 359 357 356 355 347 349 352 349 350 349 350 355 357 357 357 358 359 357 357 355 348 345 350 352 350
330 330 328 327 329 332 335 333 335 337 338 337 347 350 351 348 357 358 358 357 358 355 356 351 345 346 347 350 348 356 356 358 358 358 359 359 360 358 355 355 351 348 353 351
326 328 327 326 328 331 332 333 333 334 335 337 350 348 346 350 357 357 353 350 350 351 350 352 346 348 341 352 354 354 358 361 361 361 360 359 360 361 358 358 353 349 352 352
326 326 328 326 325 325 326 332 332 336 339 336 349 350 344 349 352 349 348 346 344 344 346 346 345 346 349 349 351 351 352 358 360 360 361 361 361 360 361 359 359 356 352 353
327 326 329 326 325 325 326 327 328 331 333 340 341 347 346 350 348 347 346 344 343 341 341 342 342 343 344 344 343 345 348 353 353 359 360 360 361 361 360 361 359 359 357 356
325 325 328 329 330 326 325 327 327 329 332 333 340 341 345 345 345 344 343 341 340 339 339 340 340 342 340 340 340 341 342 348 353 352 354 359 359 360 360 359 360 359 359 358
321 324 325 326 325 324 324 324 326 327 329 342 342 347 345 344 342 340 338 337 336 335 334 333 333 334 337 339 337 337 341 343 347 348 350 353 355 358 358 359 360 359 359 359
322 325 326 325 323 322 324 324 325 325 326 335 338 344 339 337 337 337 336 335 334 333 331 330 329 329 329 329 335 336 336 337 339 341 340 344 351 353 356 357 357 358 359 359
324 323 327 324 323 321 322 323 323 322 324 337 342 339 334 334 334 333 331 330 329 329 329 328 328 327 327 326 326 332 335 334 333 333 333 336 343 348 351 352 354 355 356 357
325 326 326 326 324 327 322 323 322 322 322 331 336 334 331 330 329 328 327 326 325 325 325 324 323 324 325 325 325 326 328 333 332 331 330 328 333 339 343 348 350 352 353 354
318 322 324 325 324 324 324 322 321 320 324 328 331 330 328 326 327 325 322 321 321 321 320 320 321 321 322 323 324 325 326 326 330 330 329 329 328 329 336 341 343 347 350 352
318 320 324 322 324 324 323 321 320 319 326 325 327 325 324 322 328 327 321 319 319 318 318 318 318 319 320 321 322 323 325 326 327 327 328 329 330 330 327 328 338 342 346 349
319 321 322 323 324 326 321 319 318 320 328 323 323 323 321 321 324 322 319 318 317 317 317 316 317 317 318 318 319 321 323 325 325 326 328 327 327 328 329 330 331 339 341 345
323 323 322 321 323 325 320 318 319 325 323 321 320 319 319 319 319 318 317 316 316 316 315 315 316 317 317 317 318 319 321 321 322 324 324 328 328 327 326 328 328 327 335 337
327 324 328 327 330 323 320 323 322 320 319 318 317 316 316 315 316 315 315 315 314 314 314 314 316 316 316 316 315 316 316 317 319 320 324 324 327 328 327 326 324 329 330 336
320 319 324 324 324 323 320 319 319 319 318 316 315 314 313 314 314 314 314 314 313 313 313 312 313 313 314 313 314 314 315 315 318 319 321 323 324 327 326 324 324 323 325 328
322 319 320 321 320 319 319 317 315 315 316 314 313 313 314 313 313 313 313 313 312 312 312 311 311 311 311 311 312 312 313 313 315 317 320 322 322 323 326 325 324 324 322 321
318 318 323 321 319 320 318 317 315 314 314 314 314 313 313 313 313 312 312 312 311 311 311 310 309 309 309 308 309 310 310 312 312 313 317 318 319 321 323 324 324 323 320 320
Wind_Speed
14 12 16 20 19 20 18 18 17 13 16 13 13 11 11 14 14 16 16 16 15 15 21 23 23 25 22 24 20 16 17 20 14 12 9 9 15 7 7 10 12 10 11 8
12 17 17 19 19 21 23 19 7 4 17 18 21 15 16 20 18 17 16 11 13 8 8 21 23 23 24 25 22 19 18 21 17 14 12 5 12 12 10 6 7 9 10 9
19 14 20 17 18 20 23 18 16 13 22 17 23 16 17 16 19 15 15 15 17 14 11 19 22 24 26 26 25 21 20 22 20 16 10 7 3 6 9 6 10 13 11 7
19 18 19 18 18 15 17 19 14 23 17 12 20 12 32 28 16 5 4 17 17 20 20 19 23 24 27 27 26 24 21 22 21 12 12 8 15 11 13 16 17 15 12 9
18 17 12 18 16 14 15 17 13 14 18 14 16 10 12 19 23 22 21 20 21 21 16 20 21 26 29 30 28 28 24 23 20 16 12 12 8 10 9 12 8 9 13 10
15 15 13 16 14 12 21 14 15 8 12 12 10 15 13 10 4 26 33 24 19 14 15 17 26 26 27 31 30 29 27 25 22 21 15 15 16 11 12 12 10 13 11 13
14 18 13 10 15 18 18 15 9 9 10 10 15 9 7 17 6 19 3 22 22 8 14 23 22 23 24 30 32 32 29 26 24 24 19 16 14 11 18 7 11 15 13 13
13 13 11 12 21 16 16 16 9 14 11 11 18 12 9 15 6 13 22 15 28 27 24 22 22 27 12 25 34 35 35 30 28 25 23 20 17 12 12 15 14 11 9 7
12 17 18 18 16 15 19 17 18 16 19 15 9 12 9 10 12 10 23 19 19 3 22 12 15 26 31 37 32 37 39 36 33 30 25 23 21 18 15 15 12 8 3 7
9 15 17 9 9 8 14 14 17 14 13 14 12 18 15 16 17 18 20 19 17 13 11 6 7 5 3 22 31 32 38 37 36 32 28 25 23 22 19 10 13 11 11 13
12 8 9 11 13 13 11 13 13 17 14 9 9 1 16 17 16 16 18 15 13 14 13 14 12 4 19 16 11 17 36 33 33 31 29 28 26 24 22 18 17 18 11 12
13 8 11 13 11 16 18 17 16 11 18 6 7 2 13 13 17 15 14 15 14 13 14 13 17 19 19 2 27 10 19 2 29 27 27 29 29 27 25 22 20 19 19 18
9 7 5 13 5 5 8 16 16 18 17 6 10 6 5 10 16 16 14 12 13 13 15 15 18 20 19 20 16 17 16 14 14 7 27 27 28 27 26 25 23 21 21 21
5 11 8 6 11 10 18 17 13 15 11 15 15 18 19 19 16 17 15 13 14 14 15 14 15 18 20 19 18 19 17 21 23 16 16 18 27 27 26 25 25 23 21 22
4 9 8 3 10 15 14 19 11 11 14 11 13 20 14 16 16 14 15 12 12 13 14 14 14 16 20 22 25 26 27 29 24 21 10 17 7 18 23 23 22 23 22 21
3 6 4 7 4 10 14 17 12 11 12 16 11 17 14 15 18 11 13 11 11 12 12 13 13 17 19 22 23 22 24 24 21 17 18 20 17 9 11 14 15 16 18 22
3 6 3 10 5 5 8 7 4 4 6 16 16 12 16 16 15 12 11 10 10 10 10 11 12 15 17 19 21 22 21 21 24 25 24 22 23 18 13 5 8 10 15 18
4 7 8 9 7 11 8 8 10 10 6 15 15 16 16 15 14 13 10 8 8 8 8 9 12 13 14 15 17 17 19 17 19 21 26 30 26 21 16 11 8 6 11 18
5 7 7 11 11 11 8 3 5 8 13 15 15 15 14 13 17 12 9 7 6 6 7 8 10 10 10 13 14 15 15 17 18 19 22 24 25 24 20 18 15 13 14 15
5 6 8 6 14 13 4 11 6 3 11 9 16 11 11 8 10 10 9 6 6 6 6 7 8 8 9 11 13 13 14 15 16 18 17 17 18 19 17 17 17 15 14 16
4 5 9 8 7 6 9 5 2 8 4 13 8 11 7 4 8 12 9 8 6 7 8 8 9 8 9 11 12 13 13 13 14 16 16 15 15 16 16 16 16 15 17 16
4 5 6 8 10 8 10 6 4 9 11 10 10 9 8 9 9 8 7 6 7 6 8 9 9 10 11 12 13 13 14 18 18 16 16 17 14 14 14 15 17 17 15 16
3 6 5 6 5 6 7 14 11 12 12 9 11 7 8 7 6 7 5 5 5 6 7 8 9 9 12 16 16 16 19 21 21 21 19 18 19 14 15 15 19 18 17 17
4 4 2 3 8 6 9 6 8 11 12 8 10 10 6 6 6 5 4 5 3 5 4 6 7 9 10 12 13 15 17 21 22 20 20 19 19 19 17 17 15 17 17 17
6 1 4 7 3 4 6 6 6 6 10 10 8 9 7 5 6 3 4 3 1 2 4 5 7 8 9 12 12 14 18 18 19 21 21 22 18 21 20 16 19 16 16 19
6 9 5 5 5 8 6 11 10 9 10 10 10 8 7 6 6 5 3 2 2 1 4 4 7 8 10 11 13 15 17 17 16 18 18 20 23 24 24 20 17 20 23 23
Wind_Direction
207 219 212 217 218 239 218 224 167 157 262 127 138 133 207 172 179 172 171 170 159 172 157 164 164 155 164 149 160 165 151 152 156 175 195 178 153 172 138 148 153 137 144 148
189 225 227 225 228 235 255 236 169 36 309 105 145 153 228 169 178 178 177 168 151 186 176 161 167 163 163 151 160 165 155 161 177 188 206 193 151 162 184 187 145 158 155 151
232 217 233 220 233 223 240 257 158 146 268 159 152 135 220 180 157 176 171 192 171 185 218 163 174 171 161 155 162 169 168 173 190 185 209 124 234 177 178 176 176 179 162 163
230 244 199 236 235 225 230 236 232 165 217 201 188 166 181 173 136 126 250 181 187 186 200 170 175 172 167 161 167 171 174 177 195 196 192 173 165 191 215 197 182 168 162 168
215 233 217 225 219 209 240 230 144 215 202 229 187 140 179 161 153 153 216 213 177 186 180 179 179 175 172 166 170 170 176 179 195 197 180 195 172 175 230 151 150 184 157 166
243 208 233 231 225 214 239 280 235 215 212 231 196 230 154 158 203 183 198 196 173 173 197 178 181 183 170 166 168 168 176 183 194 200 189 196 182 174 190 158 185 192 160 170
214 243 217 223 220 232 230 251 195 212 211 228 208 197 112 130 134 236 117 172 153 165 240 177 191 186 176 164 167 166 175 184 193 199 205 203 195 167 143 206 195 180 166 185
200 211 213 200 227 209 213 235 202 210 218 228 256 130 151 139 132 152 186 144 159 161 216 191 186 176 152 176 171 169 175 181 191 194 200 210 216 198 179 184 199 191 183 191
214 236 190 198 230 250 195 235 228 207 220 226 112 91 114 142 128 120 69 71 48 198 171 212 207 171 164 215 175 173 177 181 186 195 197 200 208 209 209 202 190 190 193 159
250 303 160 172 273 272 267 232 238 250 275 244 145 157 150 162 105 88 69 58 71 44 65 350 301 59 102 327 189 177 179 181 185 190 196 199 201 209 214 212 180 184 206 178
290 244 202 187 211 226 217 248 254 257 247 229 152 358 147 142 113 103 92 80 58 63 49 67 77 328 293 318 333 193 181 184 182 187 193 198 199 204 213 214 206 199 180 186
268 305 164 200 201 224 248 228 239 238 250 303 53 93 335 104 103 94 84 83 71 52 62 72 75 76 84 117 23 321 7 221 184 194 197 195 195 197 201 208 209 206 200 197
335 257 199 154 179 227 243 245 252 244 253 163 158 174 156 120 99 96 86 78 65 58 55 54 55 65 59 63 57 38 38 32 345 226 195 202 199 194 199 199 204 208 207 205
286 293 59 321 316 279 213 237 243 264 276 268 138 158 144 116 106 105 99 89 78 60 51 48 52 51 52 47 53 55 45 51 32 13 337 231 203 202 196 198 200 204 210 209
265 265 318 152 289 327 211 221 228 248 273 83 101 144 136 123 119 112 107 95 83 70 60 54 43 40 40 40 41 32 27 33 49 39 38 321 13 214 205 202 197 201 207 214
294 299 321 273 259 312 323 198 211 237 270 136 114 93 104 109 109 121 115 109 91 78 64 57 51 40 38 38 32 42 34 26 33 44 39 25 39 46 229 217 214 210 211 215
296 271 218 252 212 307 276 284 162 269 287 129 139 164 129 126 113 102 101 97 92 79 61 51 52 40 35 45 35 20 37 31 25 23 24 39 47 37 31 11 268 238 236 235
239 268 272 267 277 224 247 13 316 214 207 85 134 142 133 126 121 111 106 102 84 71 62 46 40 36 30 32 33 25 24 31 34 26 19 17 21 36 26 12 0 330 280 254
252 260 251 255 232 237 160 196 234 245 115 116 129 143 125 142 118 121 115 102 92 75 63 38 32 15 27 17 24 17 21 13 28 23 19 14 14 14 11 5 357 345 322 284
266 245 271 250 246 248 11 104 44 350 154 118 143 153 153 177 182 154 138 102 71 51 40 23 10 358 16 9 7 5 7 4 18 4 6 4 3 2 4 358 351 342 331 312
224 259 238 237 260 119 131 106 118 179 106 140 157 148 131 148 61 100 101 87 68 48 32 9 3 356 6 359 0 354 353 360 353 345 343 346 349 345 345 344 339 330 324 317
231 204 231 243 245 230 133 152 232 93 105 114 88 111 118 111 126 120 109 99 76 51 33 19 12 3 354 352 352 351 353 351 342 334 327 327 327 330 328 326 321 322 308 308
291 37 319 26 37 83 37 97 119 121 124 127 120 119 136 153 137 125 120 101 72 66 43 17 11 5 8 5 1 347 338 335 328 323 318 314 312 305 308 308 313 305 306 308
264 273 291 335 156 144 103 97 117 137 134 131 140 140 180 149 136 135 131 99 58 52 36 28 12 7 2 356 349 341 332 332 329 314 310 303 304 297 293 295 294 301 298 304
266 266 244 261 247 125 135 157 152 136 138 154 148 156 146 156 131 110 105 117 138 54 29 12 1 352 345 348 339 335 336 334 329 325 319 315 298 293 287 278 284 279 283 294
207 249 230 251 248 199 202 179 164 164 172 164 168 160 162 150 128 115 120 88 68 15 3 347 342 344 339 337 336 337 339 343 335 325 322 324 326 321 313 304 285 282 288 294